Location: Mount Cross
(36.6390°N, 79.4878°W)
Time: 01:25:36
(UTC+00:00)

Vanguard 2 Rocket - Pass Details

Date: 30 March 2023
Orbit: 554 x 3314 km, 32.9° (Epoch: 08 June)

Event Time Altitude Azimuth Distance (km) Brightness Sun altitude
Rises 00:47:09 0° 259° (W) 3,283 11.0 -14.5°
Reaches altitude 10° 00:49:10 10° 256° (WSW) 2,551 10.1 -14.9°
Maximum altitude 00:55:12 68° 174° (S) 1,330 7.6 -16.1°
Enters shadow 01:02:07 22° 98° (E) 3,135 9.0 -17.4°
